Regional Weather Roundup
Issued by NWS Goodland, KS

Home | Current Version | Previous Version | Text Only | Print | Product List | Glossary Off
Versions: 1 2 3 4 5 6 7 8 9 10 11 12 13 14 15 16 17 18 19 20 21 22 23 24 25 26 27 28 29 30 31 32 33 34 35 36 37 38 39 40 41 42 43 44 45 46 47 48 49 50

000
ASUS43 KGLD 221908
RWRGLD

GOODLAND FORECAST AREA HOURLY WEATHER ROUNDUP
NATIONAL WEATHER SERVICE GOODLAND KS
100 PM MDT WED OCT 22 2014

...OFFICIAL OBSERVATIONS...

CITY           SKY/WX    TMP DP  RH WIND       PRES   REMARKS
GOODLAND KS    SUNNY     72  46  39 N16       30.04F
HILL CITY KS   CLOUDY    73  56  54 S14G20    29.99F
IMPERIAL NEB   MOSUNNY   70  49  47 N9        30.03F
MCCOOK NEB     CLOUDY    66  51  58 CALM      30.00F
AKRON CO       SUNNY     66  38  35 N8        30.08F
BURLINGTON CO  SUNNY     70  43  37 N12       30.06F
LIMON CO       SUNNY     66  38  35 E6        30.11F
$$

...UNOFFICIAL OBSERVATIONS...

CITY           SKY/WX    TMP DP  RH WIND       PRES   REMARKS
COLBY KS       MOSUNNY   70  54  56 CALM      30.02F
GOVE KS          N/A     73  32  22 MISG        N/A
NORTON KS      PTSUNNY   63  54  72 S5        29.98F
SHARON SPRINGS   N/A     71  51  49 NE12        N/A
TRENTON NEB      N/A     68  32  26 NE12        N/A
KIT CARSON CO    N/A     70  45  40 N10         N/A
YUMA CO          N/A     68  38  33 N12         N/A
$$



USA.gov is the U.S. government's official web portal to all federal, state and local government web resources and services.